Weather in Betta

Russia / Krasnodar Krai     44°22′21″N   38°23′26″E
temp.,
°C
wind,
m/s
gust,
m/s
humid.,
%
clouds,
%
prec.,
mm/h
press.,
hPa
HPBL,
m
8 august, mon
mon800:00+26ne914590 0.0 1007627
03:00+24ene710660 0.0 1008381
06:00+24ne914660 0.0 1009530
09:00+27ne1116590 0.0 1009933
12:00+28e610560 0.0 1010317
15:00+28sw24650 0.0 1009250
18:00+30ne812430 0.0 1009242
21:00+29ne1015430 0.0 1009323
9 august, tue
tue900:00+28ene1117460 0.0 1009492
03:00+26ene69580 0.0 1010533
06:00+25ene79530 0.0 1010484
09:00+28ene914450 0.0 1010524
12:00+30ene913440 0.0 1009286
15:00+28s56590 0.0 1008299
18:00+29nw26543 0.0 1006177
21:00+30ene1015455 0.0 1006301
10 august, wed
wed1000:00+28ene1015470 0.0 1006387
03:00+26e56560 0.0 1006232
06:00+25ne56500 0.0 1006207
09:00+26ne675030 0.0 1006363
12:00+28sse22537 0.1 100678
15:00+27sw55633 0.1 1005186
18:00+27wnw346984 0.0 1004107
21:00+27nw467258 0.0 1004125
11 august, thu
thu1100:00+26sse227786 0.1 1004118
03:00+26ese338098 0.1 1005129
06:00+25e557972 0.0 1006258
09:00+26ese4674100 0.1 1007511
12:00+26se45805 0.4 1007467
15:00+27se34780 0.8 1007471
18:00+27sse11780 0.0 1007282
21:00+26nw11810 0.0 1008148
12 august, fri
fri1200:00+26ese23835 0.0 1008279
03:00+26se458210 0.0 1009562
06:00+26sse558220 0.1 1010593
09:00+26se558311 0.1 1010547
12:00+26sse33806 0.0 1011560
15:00+27ssw12768 0.0 1010372
18:00+27w227790 0.7 1010234
21:00+26nw448098 0.7 1010286